DW4145 Weather Reports


time (UTC)temp
F
wind
direction
speed
knots
gust
knots
rain 1hr
in
rain 24hr
in
rain mn
in
humidity
%
barometer
mb
20260902130029 72 360 0.0 0.0 0.00 0.00 0.00 96 1020.1
20260902124506 71 360 0.0 0.0 0.00 0.00 0.00 96 1020.2
20260902123011 71 360 0.0 0.0 0.00 0.00 0.00 96 1020.3
20260902121516 70 360 0.0 0.0 0.00 0.00 0.00 95 1020.0
20260902120013 70 360 0.0 0.0 0.00 0.00 0.00 95 1019.9
20260902114526 70 360 0.0 0.0 0.00 0.00 0.00 95 1019.8
20260902113049 70 360 0.0 0.0 0.00 0.00 0.00 95 1019.5
20260902111515 70 360 0.0 0.0 0.00 0.00 0.00 95 1019.3
20260902110020 70 360 0.0 0.0 0.00 0.00 0.00 95 1019.1
20260902104511 70 360 0.0 0.0 0.00 0.00 0.00 95 1019.0
20260902103024 71 360 0.0 0.0 0.00 0.00 0.00 94 1018.9
20260902101537 71 360 0.0 0.0 0.00 0.00 0.00 95 1018.8
20260902100019 71 360 0.0 0.0 0.00 0.00 0.00 95 1018.7
20260902094524 71 360 0.0 0.0 0.00 0.00 0.00 95 1018.5
20260902093028 71 360 0.0 0.0 0.00 0.00 0.00 94 1018.5
20260902091526 71 360 0.0 0.0 0.00 0.00 0.00 94 1018.4
20260902090034 71 360 0.0 0.0 0.00 0.00 0.00 94 1018.2
20260902084518 71 360 0.0 0.0 0.00 0.00 0.00 94 1018.0
20260902083034 71 360 0.0 0.0 0.00 0.00 0.00 94 1018.1
20260902081530 72 360 0.0 0.0 0.00 0.00 0.00 93 1018.0
20260902080018 72 360 0.0 0.0 0.00 0.00 0.00 94 1017.9
20260902074531 72 360 0.0 0.0 0.00 0.00 0.00 93 1017.8
20260902073023 72 360 0.0 0.0 0.00 0.00 0.00 93 1017.9
20260902071524 72 360 0.0 0.0 0.00 0.00 0.00 93 1017.9
20260902070011 73 360 0.0 0.0 0.00 0.00 0.00 93 1017.8
20260902064513 73 360 0.0 0.0 0.00 0.00 0.00 92 1017.9
20260902063020 73 360 0.0 0.0 0.00 0.00 0.00 92 1018.0
20260902062142 74 360 0.0 0.0 0.00 0.00 0.00 92 1018.0
20260902062133 74 360 0.0 0.0 0.00 0.00 0.00 92 1018.1
20260902062130 75 360 0.0 0.0 0.00 0.00 0.00 91 1018.2
20260902051520 75 360 0.0 0.0 0.00 0.00 0.00 90 1018.1
20260902050009 75 360 0.0 0.0 0.00 0.00 0.00 90 1018.0
20260902044521 75 360 0.0 0.0 0.00 0.00 0.00 90 1018.1
20260902043011 75 360 0.0 0.0 0.00 0.00 0.00 90 1018.1
20260902041514 76 360 0.0 0.0 0.00 0.00 0.00 89 1018.2
20260902040027 76 360 0.0 0.0 0.00 0.00 0.00 88 1018.2
20260902034508 77 360 0.0 0.0 0.00 0.00 0.00 87 1018.3
20260902033009 78 360 0.0 0.0 0.00 0.00 0.00 85 1018.3
20260902031530 78 360 0.0 0.0 0.00 0.00 0.00 84 1018.5
20260902030012 79 360 0.0 0.0 0.00 0.00 0.00 84 1018.5
20260902024524 79 360 0.0 0.0 0.00 0.00 0.00 83 1018.5
20260902023035 80 360 0.0 0.0 0.00 0.00 0.00 83 1018.4
20260902021512 81 360 0.0 0.0 0.00 0.00 0.00 81 1018.2
20260902020025 81 360 0.0 0.0 0.00 0.00 0.00 77 1018.2
20260902014515 82 360 0.0 0.0 0.00 0.00 0.00 75 1017.9
20260902013024 83 360 0.0 0.0 0.00 0.00 0.00 71 1017.9
20260902011540 84 360 0.0 0.0 0.00 0.00 0.00 68 1017.8
20260902010014 85 360 0.0 1.7 0.00 0.00 0.00 67 1017.6
20260902004525 86 360 0.0 0.9 0.00 0.00 0.00 64 1017.6
20260902003030 87 341 0.0 0.9 0.00 0.00 0.00 60 1017.5
20260902001516 89 341 0.0 0.0 0.00 0.00 0.00 58 1017.5
20260902000038 90 341 0.0 1.7 0.00 0.00 0.00 57 1017.6
20260901234513 91 341 0.0 0.0 0.00 0.00 0.00 54 1017.6
20260901233026 93 292 0.0 1.7 0.00 0.00 0.00 49 1017.7
20260901231520 94 292 0.0 1.7 0.00 0.00 0.00 50 1017.7
20260901230016 95 292 0.0 1.7 0.00 0.00 0.00 1017.6
20260901224515 96 292 0.0 1.7 0.00 0.00 0.00 44 1017.7
20260901223017 95 88 0.0 1.7 0.00 0.00 0.00 48 1017.6
20260901221554 96 35 0.0 1.7 0.00 0.00 0.00 46 1017.6
20260901220038 96 82 0.0 1.7 0.00 0.00 0.00 45 1017.6
20260901214527 98 9 0.9 1.7 0.00 0.00 0.00 44 1017.6
20260901213024 99 70 0.0 1.7 0.00 0.00 0.00 45 1017.7
20260901211516 98 134 0.0 1.7 0.00 0.00 0.00 45 1017.8
20260901210027 98 86 0.0 1.7 0.00 0.00 0.00 46 1017.9
20260901204529 98 264 0.0 5.2 0.00 0.00 0.00 44 1018.0
20260901203031 97 118 0.0 1.7 0.00 0.00 0.00 45 1018.1
20260901201523 96 199 0.9 4.3 0.00 0.00 0.00 44 1018.2
20260901200033 95 162 2.6 4.3 0.00 0.00 0.00 46 1018.3
20260901194520 95 196 2.6 5.2 0.00 0.00 0.00 45 1018.4
20260901193026 96 168 0.9 3.5 0.00 0.00 0.00 45 1018.6
20260901191552 95 266 0.9 4.3 0.00 0.00 0.00 46 1018.9
20260901190024 94 178 1.7 5.2 0.00 0.00 0.00 47 1019.1
20260901184525 95 285 1.7 3.5 0.00 0.00 0.00 1019.1
20260901183005 94 57 0.9 3.5 0.00 0.00 0.00 1019.2
20260901181514 94 212 0.9 5.2 0.00 0.00 0.00 1019.3
20260901180007 94 153 1.7 5.2 0.00 0.00 0.00 1019.5
20260901174516 93 329 3.5 7.0 0.00 0.00 0.00 1019.7
20260901173011 93 261 1.7 4.3 0.00 0.00 0.00 48 1020.0
20260901171505 92 26 0.9 4.3 0.00 0.00 0.00 53 1020.1
20260901170004 92 281 0.9 4.3 0.00 0.00 0.00 56 1020.2
20260901164504 92 332 0.9 7.0 0.00 0.00 0.00 55 1020.4
20260901163017 91 11 0.9 3.5 0.00 0.00 0.00 60 1020.6
20260901161525 90 42 0.9 5.2 0.00 0.00 0.00 56 1020.7
20260901160008 90 188 1.7 4.3 0.00 0.00 0.00 55 1020.8
20260901154513 90 156 0.9 3.5 0.00 0.00 0.00 57 1020.9
20260901153006 89 184 0.9 3.5 0.00 0.00 0.00 60 1020.8
20260901151531 89 226 0.9 2.6 0.00 0.00 0.00 65 1020.9
20260901150034 87 300 0.9 1.7 0.00 0.00 0.00 67 1020.9
20260901144508 85 159 0.0 2.6 0.00 0.00 0.00 70 1021.0
20260901143019 84 170 0.0 1.7 0.00 0.00 0.00 74 1020.8
20260901141513 81 171 0.0 1.7 0.00 0.00 0.00 79 1021.0
20260901140010 78 178 0.9 1.7 0.00 0.00 0.00 84 1021.0
20260901134524 76 205 0.0 0.0 0.00 0.00 0.00 90 1020.9
20260901133013 74 178 0.0 0.0 0.00 0.00 0.00 94 1021.0
20260901131527 73 178 0.0 0.0 0.00 0.00 0.00 96 1020.8